Regional Weather Roundup
Issued by NWS Grand Forks, ND

Home | Current Version | Previous Version | Text Only | Print | Product List | Glossary Off
Versions: 1 2 3 4 5 6 7 8 9 10 11 12 13 14 15 16 17 18 19 20 21 22 23 24 25 26 27 28 29 30 31 32 33 34 35 36 37 38 39 40 41 42 43 44 45 46 47 48 49 50

000
ASUS43 KFGF 042210
RWRFGF
PRAIRIE TO PINES  WEATHER ROUNDUP
NATIONAL WEATHER SERVICE EASTERN NORTH DAKOTA/GRAND FORKS ND
500 PM CDT TUE AUG 04 2015

 **SATELLITE DATA USED TO AUGMENT SKY COVER AT AUTOMATED STATIONS**
 *****  WEATHER ACROSS EASTERN NORTH DAKOTA  *****

CITY           SKY/WX    TMP DP  RH WIND       PRES   REMARKS
GRAND FORKS    SUNNY     77  54  44 VRB7G16   29.99F
GRAND FRKS AFB SUNNY     76  54  46 NE8       30.00F
GRAND FRKS NWS   N/A     77 N/A N/A N10         N/A
DEVILS LAKE    SUNNY     77  52  41 SE8       29.99F
FARGO          SUNNY     81  51  35 N6        29.99S
WAHPETON ARPT  CLEAR     79  43  27 NE5       29.99S
$$

 ***** WEATHER ACROSS CENTRAL AND WESTERN NORTH DAKOTA  *****

CITY           SKY/WX    TMP DP  RH WIND       PRES   REMARKS
BISMARCK       SUNNY     86  54  33 MISG      29.95F
MINOT          SUNNY     83  48  29 E8        29.95F
JAMESTOWN      SUNNY     79  53  40 E7        29.99S
MINOT AFB      SUNNY     83  48  29 SE9       29.95S
GARRISON         N/A     81  56  42 E8        29.96S
WILLISTON      SUNNY     88  52  29 SE14      29.90F
DICKINSON      SUNNY     85  56  37 SE16      29.93F
HETTINGER      PTSUNNY   87  53  31 SE13G22   29.96S
$$

 *****  OTHER AIRPORT OBSERVATIONS IN OUR AREA  *****

CITY           SKY/WX    TMP DP  RH WIND       PRES   REMARKS
WALHALLA       FAIR      73  52  46 MISG      30.03S
GRAFTON AIRPOR FAIR      75  54  46 NE10      30.02S
VALLEY CITY AR FAIR      77  54  44 E9        30.00F
CANDO          NOT AVBL
CAVALIER APRT  FAIR      73  54  49 N7        30.02S
GWINNER        FAIR      81  52  36 SE5       30.00S
SHEYENNE NWR     N/A     82  49  31 N3        29.95S
ROLLA            N/A     73  50  43 NE3       30.04S
 ***** THE ABOVE OBSERVATIONS ARE NON NWS ARE NOT QUALITY
       CONTROLLED AND MAY MIS-REPORT RAIN FOR SNOW...
$$

  *****  WEATHER ACROSS NORTHERN MINNESOTA  *****

CITY           SKY/WX    TMP DP  RH WIND       PRES   REMARKS
FLAG ISLAND    SUNNY     66  52  59 NE3       30.02S
WARROAD        SUNNY     66  55  68 NE7       30.04S
ROSEAU         SUNNY     72  57  60 CALM      30.02S
HALLOCK        SUNNY     73  52  46 CALM      30.01S
THF RVR FALLS  SUNNY     73  52  46 N7        30.01S
BAUDETTE       SUNNY     69  53  56 NW7       30.03S
WASKISH        SUNNY     72  54  53 NW6       30.01F
CROOKSTON      SUNNY     75  52  43 NE8       30.00S
STEPHEN NDAWN    N/A     75  52  43 NE6         N/A
GREENBUSH NDAW   N/A     75  54  46 NE5         N/A
$$
  *****  WEATHER ACROSS CENTRAL AND WEST MINNESOTA  *****

CITY           SKY/WX    TMP DP  RH WIND       PRES   REMARKS
FOSSTON        SUNNY     79  54  41 NE3       30.01S
BEMIDJI        SUNNY     73  51  47 NE13      30.01S
PARK RAPIDS    SUNNY     77  49  37 N9        30.00S
ELBOW LAKE     FAIR      78  51  39 NW6       29.99F
WADENA         SUNNY     79  46  31 N9        30.00S
DETROIT LAKES  SUNNY     77  50  38 N6        30.02S
MOORHEAD       SUNNY     77  54  44 N5        30.00S
FERGUS FALLS   SUNNY     79  50  36 N6        29.98S
MORRIS MN      SUNNY     81  50  34 CALM      29.99S
STAPLES        PTSUNNY   79  46  31 NW10      29.99S
$$
  *****  WEATHER ELSEWHERE ACROSS MINNESOTA  *****

CITY           SKY/WX    TMP DP  RH WIND       PRES   REMARKS
DULUTH         MOSUNNY   73  49  42 N14       29.98F
INTRNTL FALLS  CLOUDY    65  49  56 VRB3      30.03S
ELY            CLOUDY    63  48  59 N3        30.02S
CLOQUET        SUNNY     72  48  43 NW8G18    29.98S
WHEATON        SUNNY     77  52  41 CALM      30.00F
BRAINERD       SUNNY     78  51  38 N8        29.99S
HIBBING        PTSUNNY   71  50  47 N9        30.00S
ALEXANDRIA     SUNNY     79  50  36 VRB6      30.01F
SAINT CLOUD    MOSUNNY   81  49  32 NW8       29.98S
MINNEAPOLIS    MOSUNNY   80  50  34 W8        29.97S
$$

  *****  WEATHER ACROSS SOUTH DAKOTA  *****

CITY           SKY/WX    TMP DP  RH WIND       PRES   REMARKS
SIOUX FALLS    CLOUDY    77  62  59 E6        29.99F
BROOKINGS      PTSUNNY   75  61  60 S7        30.02S
WATERTOWN      PTSUNNY   80  55  42 SE9       30.00S
HURON          PTSUNNY   80  62  54 SE9       29.96F
SISSETON         N/A     81  54  39 NE7       29.98F
ABERDEEN       MOSUNNY   82  56  40 E6        29.97S
MITCHELL       MOSUNNY   81  63  54 SE9       29.97F
PIERRE         PTSUNNY   85  56  37 E18G24    29.92F
MOBRIDGE       MOSUNNY   86  62  44 SE13      29.93S
RAPID CITY     PTSUNNY   85  60  42 S12G21    29.94F
$$

  *****  SOME WEATHER IN NEARBY STATES *****

CITY           SKY/WX    TMP DP  RH WIND       PRES   REMARKS
GLASGOW MT     PTSUNNY   86  53  32 NW10      29.82S
GREAT FALLS MT PTSUNNY   81  43  26 E6        29.92S
CHEYENNE WY    PTSUNNY   79  47  32 W25G35    30.11F
SCOTTSBLUFF NE TSTM      64  60  87 E7        30.01R FOG
OMAHA NE       PTSUNNY   78  68  71 NE10      29.95R
DES MOINES IA  PTSUNNY   78  58  49 E12       29.96S
DAVENPORT IA   PTSUNNY   80  61  52 MISG      29.96F
CHICAGO IL     PTSUNNY   80  53  39 NW10      29.96S
EAU CLAIRE WI  CLOUDY    78  52  40 NW5       29.97R
LA CROSSE WI   MOSUNNY   81  53  37 NW9       29.96F
$$

  *****  SOME NATIONAL WEATHER *****

CITY           SKY/WX    TMP DP  RH WIND       PRES   REMARKS
LA GUARDIA NY  MOSUNNY   89  55  31 W15G23    29.83S
RALEIGH NC     PTSUNNY   92  69  47 SE7       29.93R HX  97
ATLANTA GA     MOSUNNY   95  58  28 W8        29.98F HX  94
NEW ORLEANS LA MOSUNNY   90  75  61 NE12      29.94S HX 100
OKLAHOMA CITY  PTSUNNY   86  70  58 S18G24    29.90F HX  90
ALBUQUERQUE NM MOSUNNY   92  46  20 N10       30.13F
SALT LAKE CITY MOSUNNY   89  49  25 VRB3      30.02F
LOS ANGELES CA MOSUNNY   78  58  49 W21       29.93F
BOISE ID       SUNNY     90  47  22 VRB5      29.91F
SEATTLE WA     MOSUNNY   78  50  37 SW12      30.00F
$$

*** WEATHER ACROSS MANITOBA...SASKATCHEWAN AND ONTARIO ***
                ***ONTARIO***

CITY           SKY/WX    TMP DP  RH WIND       PRES   REMARKS
GERALDTON      PTSUNNY   63  50  63 NW8       29.95R
THUNDER BAY    PTSUNNY   66  52  59 NW14      29.98S
SIOUX LOOKOUT  PTSUNNY   61  52  72 NW8       30.05S
TORONTO        PTSUNNY   73  55  53 N16G23    29.85R
BIG TROUT LK   MOSUNNY   61  50  67 NW10      29.99S
PICKLE LAKE    LGT RAIN  61  50  67 NW6       30.01R
DRYDEN         CLOUDY    63  50  63 VRB2      30.05S
KENORA         PTSUNNY   64  52  63 NE6       30.05S
$$
                *** MANITOBA***

CITY           SKY/WX    TMP DP  RH WIND       PRES   REMARKS
BRANDON        PTSUNNY   75  54  46 E6        30.01F
DAUPHIN        SUNNY     73  57  56 E9        30.02F
ISLAND LAKE    LGT RAIN  59  55  88 NW3       30.04S
PILOT MOUND      N/A     72  50  46 SE5         N/A
THE PAS        PTSUNNY   70  50  49 N6        30.02F
THOMPSON       LGT RAIN  59  52  77 NE10      30.06S
WINNIPEG       PTSUNNY   70  55  60 VRB2      30.04S
LYNN LAKE      CLOUDY    63  54  72 SE5       30.06S
CHURCHILL      CLOUDY    48  46  93 N10       30.11S
GILLAM         DRIZZLE   57  48  72 N7        30.05S
$$
                ***SASKATCHEWAN***

CITY           SKY/WX    TMP DP  RH WIND       PRES   REMARKS
ESTEVAN        PTSUNNY   81  54  39 SE9G18    29.95F
KINDERSLEY     CLOUDY    75  59  57 W5        29.80S
LLOYDMINSTER   CLOUDY    68  57  68 E12G20    29.84F
PRINCE ALBERT  CLOUDY    70  61  73 E13       29.97S
REGINA         PTSUNNY   82  54  36 SE18G24   29.91F
YORKTON        SUNNY     75  50  41 SE10      30.00S
N. BATTLEFORD  SUNNY     68  57  68 E20G30    29.86R
LA RONGE       CLOUDY    72  54  53 E3        30.01R
SASKATOON      CLOUDY    77  55  47 E21G29    29.89S
SWIFT CURRENT  MOSUNNY   84  57  39 S14G22    29.83F
$$
NOTE: THESE ARE AUTOMATED STATIONS WITH LIMITED QUALITY CONTROL
      "FAIR" INDICATES FEW OR NO CLOUDS BELOW 12,000 FEET WITH NO
      SIGNIFICANT WEATHER AND/OR OBSTRUCTIONS TO VISIBILITY.
      SKY/WX - SKY CONDITION AND SIGNIFICANT WEATHER.
      TMP - AIR TEMPERATURE.    DP   - DEWPOINT TEMPERATURE.
      RH  - RELATIVE HUMIDITY.  PRES - PRESSURE.
      HX  - HEAT INDEX.         WCI  - WIND CHILL INDEX.
$



USA.gov is the U.S. government's official web portal to all federal, state and local government web resources and services.